Tracking 29892 objects as of 21-Nov-2024
HD Live streaming from Space Station
objects crossing your sky now

YAOGAN-35 04A

Track YAOGAN-35 04A now!
10-day predictions


NORAD ID: 53522
Int'l Code: 2022-101A
Perigee: 494.7 km
Apogee: 513.8 km
Inclination: 35.0 °
Period: 94.6 minutes
Semi major axis: 6875 km
RCS: Unknown
Launch date: August 19, 2022
Source: People's Republic of China (PRC)
Launch site: Xichang Space Center, China (XSC)
Your satellite tracking list
Your tracking list is empty




NASA's NSSDC Master Catalog

Two Line Element Set (TLE):
1 53522U 22100A   24325.67965306  .00029344  00000-0  12154-2 0  9997
2 53522  35.0072  58.1921 0013859 162.2452 197.8749 15.22896737125777
Source of the keplerian elements: AFSPC